Hourly Weather Roundup
Issued by NWS Central Illinois

Home | Current Version | Previous Version | Text Only | Print | Product List | Glossary On
Versions: 1 2 3 4 5 6 7 8 9 10 11 12 13 14 15 16 17 18 19 20 21 22 23 24 25 26 27 28 29 30 31 32 33 34 35 36 37 38 39 40 41 42 43 44 45 46 47 48 49 50
000
NZUS43 KILX 272210
HWRILX

AREA WEATHER ROUNDUP
NATIONAL WEATHER SERVICE, LINCOLN IL
400 PM CST SAT DEC 27 2014


CITY           SKY/WX    TMP DP  RH WIND       PRES   REMARKS
BLOOMINGTON    CLOUDY    36  34  92 W9        30.11R WCI  29
CHAMPAIGN      LGT RAIN  38  35  89 W15       30.09F WCI  29
DECATUR        LGT RAIN  37  34  89 W9        30.14R FOG     WCI  30
FLORA          CLOUDY    44  42  93 NW8       30.11S FOG
GALESBURG      CLOUDY    32  28  82 W17       30.14R WCI  21
JACKSONVILLE   LGT RAIN  38  35  87 W10       30.15S WCI  31
LACON          CLOUDY    34  27  75 W15G21    30.12R WCI  24
LAWRENCEVILLE  CLOUDY    49  49 100 S5        30.10S FOG
LITCHFIELD     RAIN      36  33  90 NW8       30.14F WCI  30
$$


CITY           SKY/WX    TMP DP  RH WIND       PRES   REMARKS
LINCOLN        CLOUDY    37  35  91 W6        30.14R WCI  32
MACOMB         CLOUDY    33  28  82 W17       30.18R WCI  23
MATTOON        CLOUDY    40  37  89 NW12      30.09R WCI  33
MT CARMEL AP   CLOUDY    52  48  87 CALM      30.09F FOG
OLNEY-NOBLE AP CLOUDY    45  43  93 NW10      30.11R FOG
PARIS          CLOUDY    41  39  93 W9        30.10F
PEORIA         CLOUDY    36  27  69 W10       30.15R WCI  28
PONTIAC        CLOUDY    37  32  83 W18G24    30.11R WCI  27
RANTOUL        CLOUDY    39  36  88 W15       30.09S WCI  30
ROBINSON       CLOUDY    48  46  95 NW16      30.11S FOG
SPRINGFIELD    LGT RAIN  37  34  89 W12       30.15R WCI  29
TAYLORVILLE    RAIN      36  34  93 W8        30.14R WCI  29
$$

...REGIONAL REPORTS...


CITY           SKY/WX    TMP DP  RH WIND       PRES   REMARKS
CHICAGO O`HARE CLOUDY    35  28  75 W17G26    30.02R WCI  25
KANKAKEE       DRIZZLE   36  33  89 W12       30.06F WCI  28
MOLINE         CLOUDY    33  24  69 W12       30.13R WCI  24
MOUNT VERNON   CLOUDY    43  37  81 CALM      30.13R
PITTSFIELD     CLOUDY    37  34  89 W6        30.16F WCI  32
QUINCY         CLOUDY    35  27  72 NW14      30.15S WCI  26
ROCKFORD       CLOUDY    34  25  69 W14       30.08R WCI  25
$$


CITY           SKY/WX    TMP DP  RH WIND       PRES   REMARKS
BURLINGTON     CLOUDY    33  26  75 NW10      30.16R WCI  25
CEDAR RAPIDS   CLOUDY    27  23  85 W17       30.14R WCI  14
DES MOINES     MOCLDY    28  19  69 NW13      30.20R WCI  17
KIRKSVILLE     CLOUDY    32  24  72 NW12      30.19R WCI  23
OTTUMWA        CLOUDY    29  22  75 NW10      30.17S WCI  20
ST LOUIS       LGT RAIN  39  34  82 NW9       30.15F WCI  33
$$


CITY           SKY/WX    TMP DP  RH WIND       PRES   REMARKS
TERRE HAUTE    CLOUDY    44  42  93 NW12      30.10R FOG
EVANSVILLE     CLOUDY    50  48  93 S6        30.13R FOG
INDIANAPOLIS   DRZL/FOG  46  45  96 W12       30.08R VSB 1/2
LAFAYETTE      CLOUDY    40  39  97 W9        30.07F FOG     WCI  34
MADISON        CLOUDY    33  27  78 W7        30.02R WCI  27
MILWAUKEE      CLOUDY    36  28  73 W20G25    29.99R WCI  25
$$





USA.gov is the U.S. government's official web portal to all federal, state and local government web resources and services.